CAPE
0 0 0 26 83 118 153 175 168 193 286 375 404 420 434 502 743 858 890 903 907 958 1020 1237 1364 1389 1371 1300 1242 1236 1266 1253 1218 1216 1191 1138 1152 1158 1290 1455 1585 1733 1953 2068 2134 2186 2220 2256 2372 2581 2566 2222 1771 1341 964 666 124 402 597 122 0 0 0
0 0 0 0 12 52 90 148 161 174 216 342 427 497 471 530 671 842 939 954 947 968 1030 1183 1406 1438 1428 1364 1289 1270 1303 1310 1301 1299 1304 1300 1272 1214 1324 1470 1589 1678 1824 1974 2054 2124 2199 2270 2426 2579 2435 1964 1488 1317 1190 987 815 278 1 0 0 0 0
0 0 0 0 0 6 29 65 138 176 178 257 424 532 620 646 712 838 965 1012 1007 1002 1055 1142 1378 1483 1477 1444 1392 1378 1381 1383 1370 1364 1376 1389 1374 1346 1381 1487 1590 1653 1741 1880 1971 2045 2138 2279 2398 2446 2222 1747 1419 1322 1253 1189 1086 785 0 0 0 0 0
0 0 0 0 0 0 0 14 95 159 175 192 331 562 648 675 716 834 972 1095 1088 1057 1086 1180 1279 1455 1530 1518 1490 1474 1468 1462 1443 1425 1411 1402 1434 1452 1461 1508 1562 1652 1690 1769 1911 2006 2099 2252 2318 2240 1976 1603 1401 1322 1246 1170 1142 985 389 0 0 0 0
0 0 0 0 0 0 0 0 26 112 173 168 221 466 648 704 734 814 947 1102 1162 1150 1146 1251 1305 1369 1503 1561 1556 1538 1532 1535 1520 1489 1452 1418 1454 1525 1558 1583 1573 1581 1609 1623 1727 1885 2015 2104 2092 1959 1743 1517 1370 1261 1192 1138 1115 1026 715 419 369 89 0
0 0 0 0 0 0 0 0 1 38 126 158 176 331 574 714 778 836 922 1090 1230 1255 1238 1297 1398 1454 1439 1522 1576 1578 1570 1565 1558 1537 1511 1486 1522 1564 1612 1658 1672 1646 1614 1582 1620 1740 1844 1886 1822 1739 1608 1464 1364 1219 1117 1101 1123 1035 812 630 572 362 0
0 0 0 0 0 0 0 0 0 7 53 130 149 277 536 723 822 876 937 1039 1231 1340 1349 1369 1474 1544 1520 1482 1541 1579 1610 1626 1621 1616 1590 1596 1628 1630 1634 1659 1694 1714 1703 1659 1643 1682 1756 1802 1767 1640 1511 1429 1353 1232 1105 1092 1106 978 818 762 672 437 0
0 0 0 0 0 0 0 0 0 0 3 51 103 192 480 717 819 893 958 1046 1211 1368 1434 1450 1520 1629 1672 1611 1543 1550 1598 1661 1714 1711 1706 1721 1758 1763 1727 1698 1699 1701 1706 1695 1706 1716 1760 1800 1814 1686 1502 1394 1341 1249 1164 1094 1079 892 694 742 664 409 297
0 0 0 0 0 0 0 0 0 0 0 2 66 196 430 710 831 901 969 1047 1203 1376 1483 1528 1591 1670 1754 1767 1712 1630 1610 1648 1721 1791 1819 1818 1850 1880 1862 1816 1788 1771 1745 1737 1758 1791 1834 1827 1757 1639 1508 1414 1317 1248 1175 1120 1071 949 531 522 561 470 358
0 0 0 0 0 0 0 0 0 0 0 0 34 148 386 686 836 918 981 1062 1192 1382 1512 1588 1657 1716 1784 1846 1852 1810 1741 1699 1704 1768 1846 1882 1916 1951 1976 1944 1908 1870 1833 1806 1809 1821 1813 1760 1702 1597 1488 1406 1302 1201 1153 1118 1078 1016 706 354 337 362 373
0 0 0 2 0 0 0 0 0 0 0 0 21 124 365 671 842 946 1012 1076 1191 1380 1534 1646 1719 1761 1798 1860 1912 1928 1903 1843 1786 1778 1813 1878 1932 1984 2016 2034 1992 1944 1921 1870 1828 1809 1782 1733 1695 1602 1473 1385 1290 1221 1182 1163 1108 1063 931 596 434 447 528
0 0 0 2 2 0 0 0 0 0 0 0 16 128 345 639 860 968 1038 1108 1212 1370 1560 1707 1790 1825 1842 1874 1926 1973 1989 1981 1932 1888 1881 1897 1931 1979 2018 2043 2027 1990 1972 1922 1874 1846 1815 1772 1704 1610 1520 1407 1338 1296 1294 1301 1213 1147 1103 934 703 674 680
0 0 0 0 0 8 12 1 0 1 8 11 30 135 364 661 890 1009 1067 1144 1238 1378 1574 1760 1875 1903 1903 1922 1955 1994 2032 2050 2051 2022 2003 1998 2012 2016 2024 2045 2053 2023 2012 1994 1957 1889 1841 1813 1753 1658 1567 1506 1442 1424 1442 1450 1376 1266 1248 1182 969 801 774
0 0 0 0 1 2 12 225 88 92 62 90 87 190 396 692 906 1028 1110 1180 1268 1411 1612 1810 1932 1971 1990 2004 2018 2030 2064 2092 2122 2132 2113 2109 2112 2104 2095 2087 2090 2092 2062 2036 2018 1976 1927 1890 1829 1760 1679 1616 1590 1584 1587 1606 1543 1404 1360 1296 1183 1021 877
0 0 0 0 0 0 0 26 264 281 282 206 210 270 472 735 923 1050 1147 1212 1296 1449 1656 1831 1949 2041 2077 2080 2094 2097 2110 2135 2163 2196 2202 2203 2200 2203 2183 2160 2154 2154 2126 2084 2072 2038 2010 1964 1913 1876 1814 1766 1728 1723 1723 1743 1698 1553 1424 1340 1269 1180 1061
0 0 0 0 0 0 0 12 255 307 329 348 384 449 608 792 965 1093 1188 1270 1342 1496 1678 1835 1958 2063 2129 2165 2169 2179 2178 2191 2208 2239 2268 2278 2280 2288 2272 2250 2223 2212 2207 2175 2116 2091 2070 2047 2023 1980 1944 1921 1909 1914 1924 1902 1824 1734 1648 1559 1490 1387 1247
0 0 0 0 0 0 2 16 75 292 304 373 555 631 734 883 1033 1153 1229 1297 1394 1534 1708 1855 1978 2054 2160 2218 2234 2246 2254 2273 2288 2294 2318 2344 2339 2351 2340 2322 2288 2266 2260 2251 2204 2175 2169 2146 2113 2083 2076 2077 2056 2039 2024 1990 1944 1905 1838 1807 1749 1657 1564
0 0 0 0 0 2 2 15 75 144 304 338 560 748 854 1006 1122 1211 1287 1344 1430 1569 1724 1888 1987 2072 2166 2233 2267 2289 2320 2344 2358 2363 2381 2388 2411 2406 2410 2393 2366 2325 2310 2309 2296 2277 2254 2240 2191 2163 2150 2148 2141 2123 2082 2043 2000 1960 1949 1910 1870 1796 1756
0 0 0 0 0 12 10 36 108 221 420 442 458 740 949 1124 1229 1282 1341 1393 1462 1552 1737 1931 2028 2095 2174 2246 2302 2340 2376 2400 2417 2446 2442 2449 2456 2466 2472 2460 2443 2399 2358 2370 2373 2350 2343 2302 2264 2258 2235 2216 2203 2188 2177 2151 2088 2038 2016 1994 1952 1934 1894
0 0 0 0 0 33 56 65 387 434 531 589 593 674 916 1158 1300 1370 1404 1440 1481 1558 1749 1970 2095 2149 2205 2278 2342 2406 2438 2463 2498 2529 2536 2509 2508 2520 2534 2511 2503 2485 2448 2412 2378 2372 2371 2350 2313 2292 2278 2276 2269 2264 2230 2217 2192 2168 2140 2105 2071 2059 2051
29 0 0 0 0 10 45 410 498 532 620 700 753 784 835 1070 1302 1420 1472 1491 1519 1593 1758 1941 2102 2193 2254 2304 2394 2458 2522 2568 2578 2596 2599 2589 2577 2577 2564 2556 2550 2539 2507 2443 2396 2385 2378 2361 2350 2325 2308 2300 2304 2304 2295 2296 2284 2270 2275 2269 2258 2251 2237
0 104 62 0 3 44 66 430 496 577 656 746 860 966 954 1038 1235 1430 1525 1568 1600 1647 1735 1883 2041 2198 2280 2349 2428 2514 2590 2636 2657 2652 2656 2653 2649 2621 2611 2606 2604 2584 2551 2496 2438 2376 2344 2344 2337 2357 2346 2339 2339 2321 2338 2331 2327 2335 2352 2372 2383 2364 2326
370 528 589 16 82 55 146 173 396 537 647 822 938 1081 1127 1161 1260 1413 1528 1605 1645 1679 1737 1810 1935 2095 2243 2356 2441 2533 2622 2672 2697 2702 2698 2685 2681 2665 2643 2650 2637 2618 2582 2546 2479 2414 2360 2319 2324 2344 2370 2402 2398 2402 2400 2379 2363 2362 2376 2390 2382 2342 2286
1460 1333 826 122 564 546 609 511 486 482 680 889 1001 1088 1212 1288 1379 1466 1549 1619 1680 1735 1763 1785 1860 1980 2132 2280 2398 2509 2608 2676 2711 2717 2706 2690 2678 2682 2664 2681 2680 2659 2612 2582 2518 2460 2396 2340 2321 2350 2365 2413 2438 2458 2463 2444 2445 2431 2433 2412 2399 2376 2710
1668 1633 1511 1570 1386 1122 944 896 789 644 730 846 999 1138 1238 1357 1540 1649 1680 1695 1752 1794 1822 1818 1852 1932 2039 2164 2286 2418 2538 2631 2702 2738 2723 2704 2696 2664 2679 2675 2682 2678 2655 2623 2571 2504 2446 2406 2400 2417 2406 2410 2445 2500 2504 2512 2538 2552 2566 2593 2606 2730 2950
1485 1602 1713 1695 1706 1718 1742 1458 1138 1227 1039 910 935 1064 1240 1322 1463 1737 1832 1826 1815 1842 1847 1851 1879 1929 2010 2093 2187 2300 2442 2559 2673 2740 2745 2742 2708 2698 2700 2687 2681 2681 2656 2658 2619 2589 2519 2497 2474 2445 2455 2476 2501 2515 2550 2591 2636 2669 2704 2740 2752 2996 3132
1636 1633 1639 1735 1972 2074 2052 2220 1862 1305 1438 1210 1312 1344 1368 1488 1470 1580 1836 1959 1958 1937 1927 1933 1933 1963 2006 2018 2086 2220 2353 2462 2588 2694 2732 2739 2744 2747 2737 2722 2702 2682 2691 2708 2684 2678 2634 2563 2538 2518 2533 2548 2568 2600 2630 2666 2733 2774 2829 2874 3079 3228 3180
1424 1623 1879 1986 2190 2337 2517 2582 2713 2471 1925 1808 2033 2245 2097 1809 1742 1676 1693 1881 2022 2055 2055 2052 2046 2054 2058 2050 2074 2132 2288 2412 2518 2627 2677 2712 2755 2777 2766 2747 2716 2704 2725 2749 2748 2733 2713 2681 2647 2631 2649 2665 2701 2728 2785 2842 2908 3045 3101 3218 3290 3238 3096
1608 1572 1415 1386 1765 2222 2602 2893 2838 3031 3076 3008 2811 2588 2588 2565 2180 1948 1826 1770 1892 2038 2114 2087 2120 2147 2136 2100 2096 2139 2199 2383 2500 2586 2644 2662 2705 2753 2760 2743 2735 2747 2745 2774 2796 2796 2775 2778 2753 2755 2784 2811 2851 2937 3006 3102 3162 3268 3329 3328 3246 3090 2911
1738 1700 1632 1499 1652 1990 2290 2714 3082 3220 3269 3371 3373 3145 2871 2780 2834 2714 2480 2303 2124 2264 2247 2173 2253 2251 2224 2225 2213 2225 2231 2270 2424 2555 2645 2661 2694 2738 2782 2767 2763 2777 2766 2784 2817 2814 2810 2814 2848 2851 2906 2962 3042 3134 3225 3235 3204 3328 3315 3199 3064 2959 2934
1426 1534 1619 1521 1517 1780 2003 2246 2612 3007 3309 3478 3537 3580 3481 3216 2946 2944 3012 2947 2896 2866 2742 2531 2276 2242 2306 2356 2340 2308 2276 2276 2236 2435 2605 2701 2706 2770 2842 2852 2829 2806 2782 2791 2790 2790 2782 2813 2832 2922 3000 3135 3180 3232 3283 3248 3246 3298 3229 3127 3106 3086 2462
1602 1595 1593 1614 1669 1682 1924 2024 2108 2643 2935 3201 3426 3646 3674 3634 3476 3235 3074 3081 3161 3122 3041 2971 2742 2491 2331 2250 2191 2195 2202 2160 2109 2197 2447 2678 2819 2869 2874 2918 2897 2825 2793 2776 2784 2775 2751 2746 2837 2928 3037 3020 2847 2937 3142 3255 3272 3306 3309 3322 3317 2850 1726
1186 1251 1273 1320 1402 1574 1840 2015 2006 2014 2099 2583 2988 3280 3522 3628 3696 3668 3553 3368 3185 3379 3220 3142 3099 2980 2787 2636 2486 2356 2264 2216 2205 2190 2470 2750 2892 2959 2943 2907 2878 2834 2781 2735 2722 2727 2739 2763 2882 3059 3070 2912 2925 2976 3037 3222 3354 3492 3492 3519 2728 1705 1554
1119 1090 1074 1059 1310 1510 1753 1930 2085 2139 2104 2143 2206 2490 3018 3384 3593 3703 3716 3780 3743 3644 3560 3358 3240 3250 3196 3099 2962 2784 2649 2580 2551 2524 2622 2796 2906 2959 2950 2892 2872 2842 2763 2649 2599 2628 2762 2890 3066 3172 3016 2760 2822 2916 2976 3183 3405 3698 3620 2076 1682 1527 1351
1135 1089 1009 1037 1181 1494 1722 1902 2045 2154 2356 2280 2189 2166 2226 2391 2810 3287 3586 3862 3848 3899 3897 3840 3690 3489 3298 3224 3150 3088 2912 2720 2595 2600 2608 2806 2933 2934 2915 2896 2858 2834 2712 2605 2535 2590 2782 3072 3184 3114 2816 2680 2730 2757 2924 3216 3710 3410 1550 1538 1388 1277 1104
1077 981 988 1020 1096 1386 1660 1840 2000 2092 2238 2326 2424 2579 2548 2541 2410 2268 2299 2618 2874 3107 3341 3566 3610 3608 3530 3559 3406 3120 3002 2964 2862 2736 2630 2610 2718 2816 2813 2764 2737 2778 2740 2522 2470 2666 2930 3196 2954 2848 2896 2776 2656 2764 3122 3378 1925 1421 1264 1190 1050 930 781
1182 1121 1081 1011 1070 1213 1398 1583 1852 2007 2122 2184 2171 2284 2359 2438 2438 2522 2532 2566 2514 2650 2771 2905 3122 3368 3515 3521 3474 3419 3339 3242 3152 2937 2749 2623 2515 2532 2603 2627 2695 2771 2776 2620 2586 2758 3090 2687 2333 2644 2780 2650 2811 2784 2032 1416 1174 995 867 786 710 654 557
1306 1188 1107 1039 1058 1155 1370 1594 1769 1881 1946 1847 1917 2038 2134 2202 2182 2117 2167 2236 2346 2453 2526 2637 2744 2955 3154 3299 3336 3384 3348 3292 3258 3076 2906 2805 2616 2454 2410 2480 2531 2711 2738 2848 2648 2673 2735 2441 2433 2482 2545 2248 1904 1364 1013 769 651 629 568 524 505 444 384
Wind_Speed
nan nan nan nan nan 13 16 17 16 15 16 16 15 16 17 17 17 17 16 17 17 17 17 17 16 15 15 13 12 11 10 11 11 10 12 11 11 11 10 10 10 10 12 12 13 14 13 12 12 12 11 10 11 11 12 12 13 15 17 19 nan nan nan
nan nan nan nan nan nan nan 16 17 15 17 18 17 17 18 20 20 19 18 19 19 19 18 18 17 16 16 15 15 14 13 12 12 11 12 13 13 13 12 12 12 12 13 13 14 14 13 11 12 11 10 10 10 11 12 12 14 16 nan nan nan nan nan
nan nan nan nan nan nan nan nan 16 15 16 18 18 18 18 20 21 21 20 20 20 18 17 18 19 19 18 17 17 16 15 15 14 14 13 14 15 15 15 14 13 14 14 14 15 14 13 12 11 10 10 10 10 11 11 12 14 16 nan nan nan nan nan
nan nan nan nan nan nan nan nan nan 15 14 17 18 19 19 19 20 20 21 22 22 20 20 19 19 19 18 18 18 17 17 17 17 15 14 15 16 17 17 16 16 16 15 15 15 15 14 13 11 9 9 9 10 11 11 12 14 15 17 nan nan nan nan
nan nan nan nan nan nan nan nan nan 14 15 16 16 17 17 18 21 21 20 20 20 22 22 23 21 20 19 19 17 17 18 18 18 17 17 17 18 18 16 17 17 18 17 17 16 16 14 13 11 9 8 9 10 11 11 12 13 15 17 19 20 nan nan
nan nan nan nan nan nan nan nan nan nan 14 15 14 15 15 17 21 22 21 20 18 18 19 20 21 21 20 18 16 16 16 17 18 19 19 19 20 17 16 17 18 19 20 18 17 16 15 13 12 10 8 8 9 10 11 12 13 15 17 18 19 21 nan
nan nan nan nan nan nan nan nan nan nan nan 13 13 13 16 19 21 20 19 18 18 20 21 22 22 22 20 18 17 16 16 16 17 18 20 20 19 17 17 19 19 20 21 21 17 17 14 12 11 9 8 8 8 10 11 12 13 15 16 16 17 19 nan
nan nan nan nan nan nan nan nan nan nan nan nan 15 16 18 19 19 19 18 17 19 19 20 22 23 22 21 19 17 17 16 16 17 19 20 19 19 18 18 19 19 21 24 20 17 16 13 12 11 9 8 7 8 9 10 11 13 14 14 15 17 19 19
nan nan nan nan nan nan nan nan nan nan nan nan nan 16 18 20 20 18 16 17 18 20 21 22 23 22 21 20 19 17 16 16 17 19 19 19 20 18 18 19 20 23 22 20 18 16 13 12 11 9 8 7 7 9 10 11 12 12 14 16 19 21 21
nan nan nan nan nan nan nan nan nan nan nan nan nan 16 17 18 17 15 14 16 18 20 21 21 20 21 20 19 19 19 18 16 16 18 18 18 19 18 18 20 21 22 21 21 20 16 14 14 10 9 8 6 7 9 10 11 11 12 15 19 21 22 24
nan nan nan nan nan nan nan nan nan nan nan nan nan 15 16 15 14 14 15 17 18 18 21 20 20 20 20 20 20 20 19 17 17 17 17 16 16 16 17 19 19 20 21 22 18 15 16 14 11 8 7 6 7 9 10 11 11 13 16 19 20 23 26
nan nan nan nan nan nan nan nan nan nan nan nan nan 14 14 13 13 14 15 16 17 19 21 20 21 21 20 20 21 20 20 18 17 17 16 14 12 12 15 16 17 18 22 22 18 16 16 13 10 8 6 7 7 8 9 10 12 15 18 20 22 25 27
nan nan nan nan nan nan nan nan nan nan nan nan nan 14 14 14 14 14 14 16 17 19 20 21 23 22 21 21 21 21 19 17 16 15 15 13 10 12 15 15 15 17 21 23 19 16 15 12 9 9 9 8 8 8 9 10 12 15 17 20 23 26 28
nan nan nan nan nan nan nan 14 nan nan nan nan nan 16 15 15 15 15 15 15 18 20 20 20 23 24 23 22 22 22 20 17 14 13 13 11 11 15 16 17 17 17 22 26 20 14 13 12 11 12 11 9 8 8 9 10 12 14 17 20 24 26 28
nan nan nan nan nan nan nan nan 15 17 20 21 21 20 17 17 17 16 15 15 19 21 20 22 24 24 23 21 21 22 21 17 15 13 13 12 14 16 18 19 19 20 24 25 20 16 15 15 15 14 10 9 9 9 9 10 12 14 18 21 24 26 28
nan nan nan nan nan nan nan nan 15 15 20 25 26 22 20 19 20 20 19 18 19 20 21 24 24 25 25 22 21 21 21 19 18 17 17 16 15 17 19 21 22 22 24 24 21 18 18 18 16 12 9 9 9 9 9 9 11 15 23 24 25 27 28
nan nan nan nan nan nan nan nan nan 17 20 25 26 25 24 23 22 23 22 21 20 20 21 24 23 24 24 22 21 22 23 21 20 20 21 20 20 19 20 22 25 25 24 24 23 19 20 19 14 11 10 9 9 8 8 9 11 18 24 27 30 29 28
nan nan nan nan nan nan nan nan nan 23 20 21 22 25 29 29 26 26 25 24 21 20 23 23 22 23 23 22 23 24 24 23 24 23 22 23 23 23 23 24 26 26 26 26 23 20 21 17 13 12 11 10 9 8 9 10 13 21 25 28 31 31 28
nan nan nan nan nan nan nan nan 24 25 22 20 20 21 24 29 30 26 25 25 22 24 24 23 22 23 23 25 27 26 25 26 27 25 25 25 25 26 27 26 26 26 27 25 23 23 19 15 14 12 12 11 10 9 9 10 16 22 25 28 30 32 31
nan nan nan nan nan nan nan nan 19 21 21 21 20 20 21 26 28 26 25 25 27 28 25 23 23 23 24 27 30 29 28 28 29 27 27 28 28 29 29 28 26 25 27 28 27 22 18 16 13 12 12 11 11 11 11 11 18 24 26 28 31 33 34
nan nan nan nan nan nan nan 21 20 21 21 18 17 19 23 24 26 28 28 28 30 29 27 24 23 23 25 28 30 31 30 29 29 30 29 30 32 32 31 29 27 27 28 28 27 22 19 16 14 13 13 13 14 14 13 12 20 24 27 30 33 35 36
nan 39 nan nan nan nan nan 26 26 26 24 22 24 25 27 26 27 29 29 32 32 31 28 27 26 25 28 29 30 31 31 30 29 31 33 34 34 34 33 31 29 29 29 29 28 25 23 20 16 14 15 16 16 15 13 14 22 26 29 32 33 37 33
39 37 37 nan nan nan 32 27 27 28 29 31 30 30 29 29 30 30 32 35 33 32 30 30 30 30 31 31 32 33 33 32 30 31 34 37 36 34 34 33 31 30 31 30 29 28 25 21 18 18 18 17 17 16 14 14 21 27 30 33 35 34 31
45 47 47 44 40 38 38 37 36 35 34 33 32 31 31 31 31 32 35 36 36 35 34 33 32 34 34 32 33 35 36 34 32 32 34 37 36 35 34 33 31 30 32 31 30 28 26 24 22 22 21 20 19 18 16 15 22 28 31 33 36 36 34
50 51 51 53 51 48 44 41 40 39 40 39 35 34 35 35 34 34 34 38 40 39 37 35 34 37 35 33 34 34 34 33 34 33 34 34 34 35 35 35 33 31 33 31 29 28 29 27 25 24 24 22 20 20 19 17 22 28 31 33 36 36 33
55 56 55 53 54 51 46 44 44 45 43 41 36 39 41 41 40 39 39 41 43 43 38 35 37 40 39 37 37 35 32 32 34 34 34 33 33 35 35 36 34 33 34 32 31 31 31 29 28 27 26 25 22 21 19 20 23 26 30 33 37 39 36
53 53 56 57 56 53 53 52 47 43 41 40 41 43 42 42 41 39 40 41 43 42 39 37 39 43 42 42 43 39 33 31 32 33 33 34 35 35 37 38 36 35 35 34 33 33 33 31 30 30 29 28 25 23 22 23 26 27 32 34 37 40 40
58 59 59 58 60 62 59 54 53 52 49 45 43 44 43 42 41 39 40 42 39 37 38 38 40 42 43 44 44 41 36 32 30 31 34 37 38 36 36 38 38 37 37 36 36 36 35 35 34 35 34 33 30 27 26 27 30 30 30 33 37 40 41
60 61 61 63 64 63 61 59 58 57 55 52 49 49 49 48 44 42 44 43 38 38 43 44 43 43 44 46 46 45 42 36 33 34 37 39 39 38 37 40 41 40 39 40 40 40 40 39 41 42 41 40 38 35 33 32 31 31 32 33 37 40 40
54 58 60 61 61 61 61 60 59 59 60 59 57 55 53 53 51 49 49 44 47 49 51 51 49 50 51 51 50 49 47 43 39 37 37 38 40 40 41 41 42 43 44 44 46 46 47 47 48 48 46 44 43 40 38 36 33 28 29 33 37 38 41
52 52 52 54 57 59 60 60 59 59 60 59 59 57 56 53 53 53 49 49 54 55 55 54 54 54 53 51 52 52 52 52 50 46 43 41 41 43 45 45 48 51 51 51 51 52 52 51 54 54 53 53 51 45 41 36 32 29 29 33 37 41 43
52 50 50 49 49 52 52 53 55 56 55 55 56 56 55 55 52 50 49 54 55 57 57 57 57 56 53 53 54 54 55 57 58 58 56 51 46 45 48 50 51 54 54 54 53 54 54 54 56 57 53 50 52 52 48 39 31 30 30 31 35 39 43
52 51 51 53 49 48 49 50 52 53 52 51 53 54 55 54 55 53 51 51 53 54 57 59 60 59 60 58 57 59 60 61 63 64 63 62 58 53 53 55 55 56 57 57 55 54 54 54 55 56 53 52 56 62 61 49 36 31 31 32 36 39 41
53 52 51 51 51 52 51 52 53 53 52 51 50 51 52 53 52 51 50 49 50 51 55 59 59 61 62 63 64 65 65 64 65 67 66 67 68 66 61 58 57 57 57 56 56 57 57 56 57 58 56 56 60 65 63 56 41 32 33 35 38 40 42
57 55 54 55 54 54 55 54 54 53 54 52 50 51 51 52 51 51 51 49 50 51 52 55 58 61 63 65 66 65 64 65 65 65 66 68 71 73 69 63 58 57 56 55 58 62 64 62 62 61 59 62 64 64 61 56 44 34 34 39 41 44 45
61 61 60 58 57 57 57 58 58 57 56 54 53 53 54 54 54 54 53 52 52 54 56 57 60 60 59 59 60 60 62 63 64 65 66 66 68 73 74 75 75 68 63 63 68 68 69 72 68 64 65 67 66 63 59 51 45 48 45 45 48 49 51
66 65 65 63 63 62 61 59 60 61 60 58 58 58 59 60 60 58 57 55 56 57 57 57 59 60 58 58 59 61 64 66 67 67 68 66 65 67 72 76 80 87 88 81 75 73 75 77 76 68 63 68 70 69 73 68 61 52 47 49 51 54 55
69 69 68 67 66 65 62 61 60 60 59 56 56 56 58 60 62 62 61 61 61 62 63 63 63 64 65 66 66 66 66 67 70 71 70 68 68 69 70 74 77 81 89 94 87 80 71 66 70 71 70 71 72 67 61 59 56 52 49 50 54 55 53
Wind_Direction
nan nan nan nan nan 304 306 308 311 310 308 307 312 316 312 304 305 301 303 308 315 312 309 308 311 309 319 315 313 303 302 301 297 302 298 296 291 290 290 286 294 299 299 304 309 318 319 305 310 314 318 325 327 328 328 326 328 330 330 331 nan nan nan
nan nan nan nan nan nan nan 302 305 305 300 303 307 313 310 311 306 307 311 313 319 319 315 315 314 314 315 311 301 301 301 302 298 287 285 284 284 283 285 289 295 300 300 303 305 308 303 302 303 309 317 320 327 328 331 333 331 331 nan nan nan nan nan
nan nan nan nan nan nan nan nan 298 305 304 303 307 308 316 317 314 318 314 315 322 322 320 324 323 321 313 307 302 303 301 295 293 292 289 286 285 286 284 288 289 290 298 298 295 300 299 296 296 305 312 316 323 328 335 338 334 331 nan nan nan nan nan
nan nan nan nan nan nan nan nan nan 308 306 310 313 319 324 322 312 310 312 321 328 329 333 332 328 325 317 313 308 302 299 295 295 290 285 276 278 279 282 284 284 283 285 290 291 295 293 289 294 299 309 312 321 326 331 340 336 330 328 nan nan nan nan
nan nan nan nan nan nan nan nan nan 305 314 314 315 320 321 314 305 302 310 322 330 336 338 335 332 332 328 325 309 299 299 296 290 283 277 271 271 273 281 287 286 287 286 281 285 291 288 283 284 289 298 309 318 319 329 334 335 329 326 328 335 nan nan
nan nan nan nan nan nan nan nan nan nan 312 310 312 311 305 298 293 305 316 321 325 329 326 329 335 332 332 330 318 304 292 288 287 285 280 275 273 274 279 280 283 283 281 285 284 288 287 279 281 286 298 309 317 317 323 329 330 326 328 332 341 342 nan
nan nan nan nan nan nan nan nan nan nan nan 298 300 293 286 284 294 304 306 313 320 322 326 333 336 332 333 327 326 317 308 296 284 282 276 274 273 275 275 275 278 279 279 275 281 284 281 274 276 284 299 312 315 319 322 325 325 321 327 337 344 342 nan
nan nan nan nan nan nan nan nan nan nan nan nan 269 270 275 280 285 291 300 311 312 316 324 333 334 335 333 329 326 326 313 300 284 279 275 275 273 273 270 271 274 275 274 279 282 281 276 268 266 273 292 304 311 315 321 323 323 321 326 338 342 341 336
nan nan nan nan nan nan nan nan nan nan nan nan nan 281 285 283 286 294 308 307 303 315 328 332 333 329 329 332 331 330 315 304 295 286 283 280 272 272 271 270 271 271 275 275 273 272 264 257 261 269 280 290 299 310 319 320 319 319 329 340 344 342 338
nan nan nan nan nan nan nan nan nan nan nan nan nan 273 282 282 285 290 289 294 301 319 326 323 319 322 330 333 333 329 323 320 308 299 292 285 275 274 270 268 267 269 271 270 269 270 255 250 255 257 269 284 294 308 314 314 316 324 334 342 342 341 339
nan nan nan nan nan nan nan nan nan nan nan nan nan 283 284 286 284 281 285 291 304 313 310 311 311 318 327 330 333 330 328 329 321 318 312 298 276 272 266 265 264 264 268 267 270 265 252 248 250 252 259 278 298 304 309 316 321 331 337 339 338 340 340
nan nan nan nan nan nan nan nan nan nan nan nan nan 284 286 284 280 285 292 303 306 300 297 306 306 315 320 325 331 331 332 331 330 335 331 312 283 263 257 257 258 262 262 268 272 262 251 253 251 249 259 269 284 297 307 314 326 335 339 340 338 339 340
nan nan nan nan nan nan nan nan nan nan nan nan nan 276 279 285 290 293 298 304 299 294 299 303 304 311 318 323 331 331 331 332 337 337 333 317 282 245 242 247 253 260 264 267 268 260 252 252 252 244 253 265 275 296 308 318 327 336 338 337 338 340 338
nan nan nan nan nan nan nan 282 nan nan nan nan nan 263 267 274 283 293 300 302 295 291 292 290 300 309 317 320 329 335 335 329 326 328 329 311 273 251 246 244 246 252 258 262 266 260 256 255 250 244 248 261 276 289 299 318 332 335 334 334 337 337 335
nan nan nan nan nan nan nan nan 276 276 272 268 264 261 266 271 274 275 278 282 286 290 298 295 297 305 311 319 334 342 335 317 304 303 306 301 284 271 264 257 251 248 254 261 263 254 251 248 245 249 255 262 275 287 301 322 334 328 327 331 335 333 333
nan nan nan nan nan nan nan nan 287 283 272 264 264 263 262 267 273 278 283 287 292 301 302 292 296 301 308 323 338 335 325 315 303 296 292 292 294 288 279 269 260 252 254 260 261 254 250 248 250 257 267 270 275 285 300 320 320 331 337 334 331 330 329
nan nan nan nan nan nan nan nan nan 288 273 264 264 264 263 270 278 279 280 282 292 305 303 299 297 298 306 324 328 318 315 315 312 301 297 295 291 286 283 278 267 259 254 255 255 253 251 253 259 266 267 273 279 294 305 314 320 337 331 335 334 327 328
nan nan nan nan nan nan nan nan nan 295 289 274 267 262 258 261 266 270 276 283 294 302 300 301 302 305 310 317 310 305 309 313 312 311 310 301 296 290 285 278 272 264 258 256 255 251 251 259 266 267 268 267 281 300 311 317 331 330 328 328 331 332 332
nan nan nan nan nan nan nan nan 295 297 292 281 280 276 272 270 269 273 281 287 295 288 290 301 307 309 309 304 300 303 305 304 306 313 315 312 304 290 280 278 276 271 263 262 258 252 255 260 264 265 267 274 288 301 309 309 320 322 324 327 333 339 340
nan nan nan nan nan nan nan nan 274 281 285 286 294 301 293 282 281 281 283 287 282 283 287 294 299 303 307 302 300 298 297 298 302 307 313 310 303 294 287 282 282 277 268 262 260 261 260 260 266 264 267 274 281 287 291 302 310 321 324 330 337 343 343
nan nan nan nan nan nan nan 254 259 264 264 263 272 274 273 277 281 276 273 274 281 285 287 289 293 298 301 303 302 295 290 293 299 303 303 302 301 301 299 292 283 279 275 272 273 271 266 263 262 259 264 270 273 276 286 298 314 320 328 333 339 344 344
nan 234 nan nan nan nan nan 257 266 275 279 273 270 270 274 281 282 280 281 280 284 285 286 286 289 293 292 296 299 298 293 291 293 296 295 296 298 303 308 303 294 288 281 277 275 269 261 256 255 258 260 265 275 283 296 304 319 324 329 336 340 343 338
220 226 232 nan nan nan 228 242 265 275 273 271 275 278 281 280 278 279 277 276 278 281 283 285 287 288 290 294 297 298 294 289 288 289 290 293 296 303 308 309 301 290 282 282 280 275 271 266 261 256 261 271 279 291 299 301 313 324 330 335 340 333 332
221 225 229 230 233 240 245 242 234 239 253 267 273 279 280 277 272 269 269 273 273 275 276 280 285 286 290 294 296 299 297 289 284 284 286 289 297 302 303 305 301 295 288 288 283 276 271 262 255 255 261 271 280 290 295 300 307 323 328 335 335 330 328
221 224 226 228 231 231 234 242 248 245 247 254 259 262 262 262 261 262 267 270 271 273 277 285 289 287 289 292 293 296 292 283 279 281 283 288 294 296 298 302 303 295 287 283 277 271 262 257 255 256 260 268 276 291 300 298 302 321 326 329 327 325 321
220 223 224 226 228 229 232 237 246 255 259 259 261 263 262 261 262 264 268 269 270 272 278 286 290 290 289 287 284 283 281 276 276 279 283 287 288 288 292 292 292 291 288 282 272 265 261 260 258 259 259 264 271 277 293 294 292 308 319 320 321 325 317
226 228 227 227 227 227 231 232 240 250 255 255 253 255 258 260 262 264 266 269 270 276 282 286 287 287 287 283 280 277 277 274 275 279 281 281 280 279 281 284 289 289 287 280 270 264 262 262 257 256 256 260 265 273 281 286 290 298 312 316 318 320 315
224 226 228 230 228 227 229 235 238 241 248 250 250 253 258 262 266 266 264 264 270 278 282 282 283 284 283 284 285 283 278 275 271 270 270 272 271 269 273 277 282 283 282 276 271 268 264 259 254 253 253 254 257 262 268 272 287 288 302 309 309 314 315
226 228 228 227 227 227 229 231 234 240 245 245 247 254 260 260 263 264 266 271 275 269 262 265 269 272 275 276 280 282 282 278 270 261 260 267 271 271 268 268 272 274 274 275 271 267 261 256 252 251 251 250 249 250 255 259 265 283 290 299 305 310 311
227 228 230 233 236 236 236 238 238 238 241 245 246 247 255 264 266 266 267 268 265 265 267 269 270 273 276 278 279 280 282 281 273 262 257 263 266 267 265 263 264 265 266 266 266 262 256 249 250 250 250 250 248 245 247 250 256 267 284 291 301 305 304
229 230 230 230 231 234 240 242 241 243 243 245 245 249 250 254 264 266 269 268 269 269 270 271 272 272 274 275 276 277 278 279 277 272 265 261 261 262 263 263 260 259 259 261 262 263 260 257 257 256 253 250 245 242 245 249 256 262 275 288 295 299 300
230 232 235 236 234 232 236 239 242 243 244 244 246 248 250 250 253 261 262 262 266 270 271 273 273 274 275 276 277 278 276 275 276 277 276 273 268 264 262 264 262 260 259 260 263 264 264 263 263 264 265 268 266 260 256 256 261 265 271 281 288 291 299
231 234 237 238 239 240 240 240 241 242 242 244 243 244 246 248 250 250 249 255 256 261 268 271 274 275 275 277 277 276 276 278 278 281 283 283 278 270 261 258 258 260 260 260 262 264 263 263 264 265 266 269 267 264 260 260 267 275 276 281 287 287 291
234 238 241 244 245 245 245 245 246 246 246 247 243 242 244 247 248 250 251 254 257 260 265 270 273 274 276 277 275 275 276 277 279 279 276 276 276 272 265 259 257 258 259 259 262 263 261 260 260 262 265 264 265 267 263 261 270 283 284 284 287 287 289
236 239 243 247 248 248 249 249 248 248 249 248 248 248 248 248 249 250 252 255 259 261 263 266 264 265 268 270 272 274 276 276 276 275 274 271 268 265 265 264 259 258 257 256 258 260 260 259 258 259 261 262 264 269 269 264 272 287 284 285 288 290 289
236 239 242 246 250 251 251 251 252 253 253 253 255 256 257 256 255 255 255 257 258 260 261 262 264 266 269 269 271 272 272 273 274 275 275 275 272 270 262 251 247 243 249 252 244 242 250 254 253 254 256 258 260 267 272 270 273 281 285 283 285 285 283
240 241 242 244 247 248 249 250 251 251 251 252 255 257 258 260 260 259 258 258 258 260 263 265 266 268 269 268 269 272 275 275 275 275 274 274 274 271 268 260 250 244 239 244 255 256 251 248 249 252 252 255 257 257 260 262 271 284 283 282 284 285 285
244 245 245 245 245 246 247 247 248 249 249 250 252 253 255 257 257 259 260 261 262 263 264 263 265 264 264 263 263 265 268 272 276 277 275 273 272 270 266 264 262 251 243 240 244 252 258 256 255 255 253 254 259 261 259 267 277 282 283 284 285 285 285